{"data":{"norad_id":49309,"intl_designator":"2021-090AG","name":"ONEWEB-0383","alt_names":[],"object_type":"PAYLOAD","status":"ACTIVE","operator":null,"country":"UK","launch_date":"2021-10-14","launch_site_code":"VOSTO","launch_vehicle":null,"mission":null,"orbit_class":"UNKNOWN","rcs_meters":null,"size_class":null,"mass_kg":null,"dimensions":null,"purposes":["comms"],"wikipedia_slug":null,"has_3d_model":false,"image_url":null,"decayed_at":null,"tle_current":{"epoch":"2026-09-19T19:08:10.952736Z","epoch_age_seconds":82712,"freshness":"FRESH","line1":"1 49309U 21090AG  26262.79734899  .00000174  00000+0  43560-3 0  9993","line2":"2 49309  87.8900 270.8320 0002067  90.5282 269.6085 13.14501894240022","mean_motion":13.14501894,"eccentricity":0.0002067,"inclination_deg":87.89,"raan_deg":270.832,"arg_perigee_deg":90.5282,"mean_anomaly_deg":269.6085,"bstar":0.0004356,"rev_number":24002,"period_min":109.54719856798,"perigee_km":1204.2262408751,"apogee_km":1207.3614378841,"semimajor_km":7583.9308393796,"source":"CELESTRAK","updated_at":"2026-09-20T09:00:44.675107Z"}}}